Pine Bluff, AR

12:02 PM CDT on August 23, 2017 (GMT -0500)
Grider

Weather History for KPBF - October, 2011

Change the Weather History Date:

Friday, October 21, 2011

  Actual Average Record
Temperature  
Mean Temperature 53 °F 62 °F  
Max Temperature 71 °F 73 °F 93 °F (1927)
Min Temperature 35 °F 50 °F 29 °F (1952)
Degree Days  
Heating Degree Days 12 5  
Month to date heating degree days 68 61  
Since 1 July heating degree days 70 72  
Cooling Degree Days 0 2  
Month to date cooling degree days 59 61  
Year to date cooling degree days 2463 2105  
Growing Degree Days 4 (Base 50)    
Moisture  
Dew Point 36 °F    
Average Humidity 59    
Maximum Humidity 92    
Minimum Humidity 25    
Precipitation  
Precipitation 0.00 in 0.18 in 3.01 in (1996)
Month to date precipitation 1.49 3.34  
Year to date precipitation 32.03 39.22  
Snow  
Snow 0.00 in 0.00 in - ()
Month to date snowfall 0.0 0.0  
Since 1 July snowfall 0.0 0.0  
Since 1 September snowfall 0.0 0.0  
Snow Depth 0.00 in    
Sea Level Pressure  
Sea Level Pressure 30.19 in    
Wind  
Wind Speed 1 mph (SE)    
Max Wind Speed 7 mph    
Max Gust Speed 9 mph    
Visibility 10 miles    
Events      
T = Trace of Precipitation, MM = Missing Value Source: NWS Daily Summary

Daily Weather History Graph

Daily Weather History Graph

Search for Another Location

Airport or City:

Trip Planner

Search our weather history database for the weather conditions in past years. The results will help you decide how hot, cold, wet, or windy it might be!

Date:

Astronomy

Oct. 21, 2011 Rise Set
Actual Time 7:17 AM CDT 6:26 PM CDT
Civil Twilight 6:52 AM CDT 6:51 PM CDT
Nautical Twilight 6:22 AM CDT 7:21 PM CDT
Astronomical Twilight 5:53 AM CDT 7:50 PM CDT
Moon 1:24 AM CDT (10/21) 2:57 PM CDT (10/21)
Length of Visible Light 11h 59m
Length of Day
11h 08m
Waning Crescent, 33% of the Moon is Illuminated
Oct 21
Waning Crescent
Oct 26
New
Nov 2
First Quarter
Nov 10
Full
Nov 18
Last Quarter

Hourly Weather History & Observations

Time (CDT) Temp. Dew Point Humidity Pressure Visibility Wind Dir Wind Speed Gust Speed Precip Events Conditions
12:53 AM 39.0 °F 35.1 °F 86% 30.15 in 10.0 mi Calm Calm - N/A   Clear
1:53 AM 43.0 °F 33.1 °F 68% 30.17 in 10.0 mi Calm Calm - N/A   Clear
2:53 AM 43.0 °F 34.0 °F 71% 30.17 in 10.0 mi Calm Calm - N/A   Clear
3:53 AM 39.9 °F 34.0 °F 79% 30.17 in 10.0 mi Calm Calm - N/A   Clear
4:53 AM 37.9 °F 33.1 °F 83% 30.18 in 10.0 mi Calm Calm - N/A   Clear
5:53 AM 36.0 °F 33.1 °F 89% 30.19 in 10.0 mi Calm Calm - N/A   Clear
6:53 AM 36.0 °F 33.1 °F 89% 30.22 in 10.0 mi Calm Calm - N/A   Clear
7:53 AM 37.0 °F 34.0 °F 89% 30.24 in 10.0 mi Calm Calm - N/A   Clear
8:53 AM 46.0 °F 37.0 °F 71% 30.27 in 10.0 mi Calm Calm - N/A   Clear
9:53 AM 53.1 °F 36.0 °F 52% 30.27 in 10.0 mi Calm Calm - N/A   Clear
10:53 AM 59.0 °F 33.1 °F 38% 30.27 in 10.0 mi Calm Calm - N/A   Clear
11:53 AM 61.0 °F 30.9 °F 32% 30.26 in 10.0 mi Calm Calm - N/A   Clear
12:53 PM 63.0 °F 32.0 °F 31% 30.23 in 10.0 mi South 3.5 mph - N/A   Clear
1:53 PM 66.9 °F 33.1 °F 28% 30.20 in 10.0 mi Calm Calm - N/A   Partly Cloudy
2:53 PM 68.0 °F 34.0 °F 28% 30.18 in 10.0 mi Calm Calm - N/A   Clear
3:53 PM 71.1 °F 34.0 °F 26% 30.17 in 10.0 mi Calm Calm - N/A   Clear
4:53 PM 71.1 °F 35.1 °F 27% 30.16 in 10.0 mi Calm Calm - N/A   Clear
5:53 PM 66.2 °F 39.2 °F 37% 30.15 in 10.0 mi East 5.8 mph - N/A   Clear
6:53 PM 57.9 °F 43.0 °F 58% 30.16 in 10.0 mi ESE 3.5 mph - N/A   Clear
7:53 PM 55.0 °F 42.1 °F 62% 30.17 in 10.0 mi Calm Calm - N/A   Clear
8:53 PM 53.1 °F 43.0 °F 69% 30.17 in 10.0 mi Calm Calm - N/A   Clear
9:53 PM 50.0 °F 43.0 °F 77% 30.17 in 10.0 mi Calm Calm - N/A   Clear
10:53 PM 48.9 °F 42.1 °F 77% 30.17 in 10.0 mi Calm Calm - N/A   Clear
11:53 PM 46.9 °F 42.1 °F 83% 30.16 in 10.0 mi Calm Calm - N/A   Clear